• MPC Preparation (Info)

  • MPEC 2013-E10 : 2013 EP

    The following Minor Planet Electronic Circular may be linked-to from your own Web pages, but must not otherwise be redistributed electronically.

    A form allowing access to any MPEC is at the bottom of this page.


    Read MPEC 2013-E09 Read MPEC 2013-E11


    M.P.E.C. 2013-E10                                Issued 2013 Mar. 4, 11:44 UT
    
         The Minor Planet Electronic Circulars contain information on unusual
             minor planets and routine data on comets.  They are published
       on behalf of Commission 20 of the International Astronomical Union by the
              Minor Planet Center, Smithsonian Astrophysical Observatory,
                              Cambridge, MA 02138, U.S.A.
    
                 Prepared using the Tamkin Foundation Computer Network
    
                                  MPC@CFA.HARVARD.EDU
                URL https://www.minorplanetcenter.net/    ISSN 1523-6714
    
                                        2013 EP
    
    Observations:
         K13E00P* C2013 03 02.29900 10 42 39.09 +09 54 34.9          19.9 VuEE010G96
         K13E00P  C2013 03 02.30545 10 42 37.11 +09 53 22.7          18.8 VuEE010G96
         K13E00P  C2013 03 02.31191 10 42 35.02 +09 52 07.3          19.9 VuEE010G96
         K13E00P  C2013 03 02.31836 10 42 33.01 +09 50 53.2          19.6 VuEE010G96
         K13E00P  C2013 03 02.35384 10 42 21.92 +09 44 06.2          20.1 VuEE010G96
         K13E00P  C2013 03 02.36192 10 42 19.47 +09 42 33.1          19.9 VuEE010G96
         K13E00P  C2013 03 02.36720 10 42 17.82 +09 41 32.3          20.0 VuEE010G96
         K13E00P  C2013 03 02.37252 10 42 16.16 +09 40 31.2          19.7 VuEE010G96
         K13E00P KC2013 03 02.86012 10 40 08.34 +08 06 53.9                qEE010J95
         K13E00P KC2013 03 02.87597 10 40 03.74 +08 03 53.4                qEE010J95
         K13E00P KC2013 03 02.89169 10 39 59.15 +08 00 54.4          20.1 RqEE010J95
         K13E00P KC2013 03 02.91843 10 39 50.72 +07 55 56.9                tEE010204
         K13E00P KC2013 03 02.92163 10 39 50.47 +07 55 21.2          19.9 VuEE010I93
         K13E00P KC2013 03 02.93243 10 39 46.53 +07 53 16.4          19.8 RtEE010204
         K13E00P KC2013 03 02.93764 10 39 45.72 +07 52 18.7          20.1 VuEE010I93
         K13E00P KC2013 03 02.94659 10 39 42.23 +07 50 34.5                tEE010204
         K13E00P KC2013 03 02.95394 10 39 40.79 +07 49 12.6          20.2 VuEE010I93
         K13E00P KC2013 03 03.19036510 38 36.98 +07 04 13.4          20.3 VuEE010H21
         K13E00P KC2013 03 03.19297210 38 36.20 +07 03 43.2          20.4 VuEE010H21
         K13E00P KC2013 03 03.19559910 38 35.40 +07 03 13.7          20.3 VuEE010H21
         K13E00P KC2013 03 03.19821210 38 34.62 +07 02 43.6          20.3 VuEE010H21
         K13E00P KC2013 03 03.92452 10 35 20.36 +04 44 23.3                qEE010J95
         K13E00P KC2013 03 03.92846 10 35 19.11 +04 43 38.8                qEE010J95
         K13E00P KC2013 03 03.93242 10 35 18.06 +04 42 53.4          20.1 RqEE010J95
         K13E00P |C2013 03 04.09318 10 34 36.99 +04 14 40.6          19.8 VuEE010807
         K13E00P |C2013 03 04.09566 10 34 36.26 +04 14 12.4          19.9 VuEE010807
    
    Observer details:
    204 Schiaparelli Observatory.  Observer L. Buzzi.  0.60-m f/4.64 reflector
        + CCD.
    807 Cerro Tololo.  Observers T. Linder, R. Holmes, H. Tanquary.  0.41-m f/11
        Ritchey-Chretien + CCD.
    G96 Mt. Lemmon Survey.  Observer J. A. Johnson.  Measurers A. Boattini,
        E. J. Christensen, A. R. Gibbs, A. D. Grauer, R. E. Hill, J. A. Johnson,
        R. A. Kowalski, S. M. Larson, R. H. McNaught, F. C. Shelly.  1.5-m
        reflector + CCD.
    H21 Astronomical Research Observatory, Westfield.  Observers T. Linder,
        R. Holmes.  0.76-m f/3.0 astrograph + CCD.
    I93 St Pardon de Conques.  Observer F. Losse.  0.40-m f/3.7 reflector + CCD.
    J95 Great Shefford.  Observer P. Birtwhistle.  0.40-m f/6.0 Schmidt-Cassegrain
        + CCD.
    
    Orbital elements:
    2013 EP                                                  Earth MOID = 0.0851 AU
    Epoch 2013 Apr. 18.0 TT = JDT 2456400.5                 MPC
    M  31.85580              (2000.0)            P               Q
    n   0.61442614     Peri.  174.53058     -0.91749161     -0.38840991
    a   1.3703229      Node   341.86680     +0.35369587     -0.69811265
    e   0.2149437      Incl.   15.98623     +0.18195707     -0.60147857
    P   1.60           H   24.9           G   0.15           U   7
    Residuals in seconds of arc
    130302 G96  0.2+  0.2-    130302 J95  0.1+  0.0     130303 H21  0.2-  0.5-
    130302 G96  0.7+  1.4+    130302 J95  0.2+  0.5+    130303 H21  0.2-  0.0
    130302 G96  0.3-  0.0     130302 204  0.3-  0.2+    130303 H21  0.1-  0.3-
    130302 G96  0.2-  0.1-    130302 I93  0.8-  0.2-    130303 J95  0.7+  0.0
    130302 G96  0.6-  0.1-    130302 204  0.1+  0.3-    130303 J95  0.9-  0.2+
    130302 G96  0.3+  0.4-    130302 I93  0.1+  0.2+    130303 J95  0.6+  0.2-
    130302 G96  0.1+  0.5-    130302 204  0.3-  0.2-    130304 807  0.5-  0.1+
    130302 G96  0.1-  0.5-    130302 I93  0.2-  0.5+    130304 807  0.4-  0.0
    130302 J95  0.0   0.3-    130303 H21  0.3-  0.1-
    
    Ephemeris:
    2013 EP                  a,e,i = 1.37, 0.21, 16                  q = 1.0758
    Date    TT    R. A. (2000) Decl.     Delta      r     Elong.  Phase     V
    2013 02 02    12 35 19.7 +58 00 52   0.1729  1.0901   123.3    49.0    23.1
    ...
    2013 02 17    11 46 07.9 +43 39 59   0.1117  1.0775   141.2    35.0    21.7
    ...
    2013 02 25    11 07 55.2 +26 00 09   0.09030 1.0757   161.2    17.3    20.7
    ...
    2013 03 03    10 39 27.1 +07 41 35   0.08556 1.0767   176.1     3.6    20.1
    2013 03 04    10 34 58.6 +04 31 30   0.08594 1.0770   173.8     5.8    20.2
    2013 03 05    10 30 36.6 +01 23 49   0.08665 1.0774   170.7     8.5    20.3
    ...
    2013 03 11    10 07 11.3 -15 19 02   0.09736 1.0810   152.9    24.7    21.2
    ...
    2013 03 19    09 44 44.8 -30 09 32   0.1238  1.0887   136.5    39.0    22.1
    ...
    2013 04 03    09 28 07.1 -42 41 56   0.1886  1.1115   122.1    49.7    23.4
    
    A. U. Tomatic                (C) Copyright 2013 MPC           M.P.E.C. 2013-E10
    

    Read MPEC 2013-E09 Read MPEC 2013-E11


    MPEC number:

    Enter an MPEC number in one of the following forms:

    • 1997-B01 (the full form)
    • J97B01 (the packed version of the full form)
    • B01 (the abbreviated form)